Location: Stony Creek
(40.9500°S, 175.8500°E)
Time: 10:06:27
(UTC+00:00)

ARIANE 6 FM1 Upper Stage - Pass Details

Date: 15 May 2026
Orbit: 528 x 599 km, 62.0° (Epoch: 10 June)

Event Time Altitude Azimuth Distance (km) Brightness Sun altitude
Exits shadow 17:20:13 31° 190° (S) 1,085 3.9 -22.1°
Maximum altitude 17:22:02 51° 131° (SE) 772 3.5 -21.8°
Drops below altitude 10° 17:26:21 10° 54° (NE) 1,946 6.3 -21.0°
Sets 17:28:39 0° 49° (NE) 2,836 7.2 -20.5°
